Tracking 31027 objects as of 19-Jul-2025
HD Live streaming from Space Station
objects crossing your sky now

COSMOS 1249 COOLANT

Track COSMOS 1249 COOLANT now!
10-day predictions


NORAD ID: 26508
Int'l Code: 1981-021K
Perigee: 888.9 km
Apogee: 968.1 km
Inclination: 65.0 °
Period: 103.4 minutes
Semi major axis: 7299 km
RCS: 0.0061 m2 (small)
Launch date: March 5, 1981
Source: Commonwealth of Independent States (former USSR) (CIS)
Launch site: TYURATAM MISSILE AND SPACE COMPLEX (TTMTR)

Note: This is SATELLITE DEBRIS
Your satellite tracking list
KORSAT 7
Track 1 satellite(s)




NASA's NSSDC Master Catalog

Two Line Element Set (TLE):
1 26508U 81021K   25194.16602031  .00000077  00000-0  12943-3 0  9999
2 26508  64.9659 112.9793 0054236 327.6252 101.4361 13.92082066611473
Source of the keplerian elements: AFSPC